TimeMST,TemperatureF,Dew PointF,Humidity,Sea Level PressureIn,VisibilityMPH,Wind Direction,Wind SpeedMPH,Gust SpeedMPH,PrecipitationIn,Events,Conditions,WindDirDegrees,DateUTC
12:53 AM,25.0,17.1,72,30.27,10.0,SW,6.9,-,N/A,,Scattered Clouds,220,2013-02-01 07:53:00
1:53 AM,21.2,17.6,86,30.15,10.0,SSW,8.1,-,N/A,,Clear,210,2013-02-01 08:53:00
2:53 AM,21.9,18.0,85,30.25,10.0,SSW,10.4,-,N/A,,Clear,210,2013-02-01 09:53:00
3:53 AM,19.9,17.1,89,30.25,10.0,SW,5.8,-,N/A,,Clear,230,2013-02-01 10:53:00
4:53 AM,19.0,16.0,88,30.23,10.0,WSW,6.9,-,N/A,,Clear,240,2013-02-01 11:53:00
5:53 AM,19.0,16.0,88,30.21,10.0,SW,3.5,-,N/A,,Clear,220,2013-02-01 12:53:00
6:53 AM,19.9,16.0,85,30.20,10.0,SSW,4.6,-,N/A,,Mostly Cloudy,210,2013-02-01 13:53:00
7:53 AM,25.0,21.0,85,30.17,10.0,South,12.7,-,N/A,,Mostly Cloudy,190,2013-02-01 14:53:00
8:53 AM,28.0,21.9,78,30.16,-9999.0,SSW,6.9,-,N/A,,Overcast,210,2013-02-01 15:53:00
9:39 AM,33.8,24.8,70,30.06,1.5,SW,8.1,-,N/A,,Haze,230,2013-02-01 16:39:00
9:49 AM,32.0,24.8,75,30.06,5.0,SW,10.4,-,N/A,,Haze,230,2013-02-01 16:49:00
9:53 AM,32.0,24.1,73,30.14,1.8,SW,9.2,-,N/A,,Haze,230,2013-02-01 16:53:00
10:08 AM,33.8,24.8,70,30.05,10.0,SW,9.2,-,N/A,,Overcast,220,2013-02-01 17:08:00
10:53 AM,41.0,26.1,55,30.11,10.0,West,5.8,-,N/A,,Mostly Cloudy,280,2013-02-01 17:53:00
11:53 AM,48.0,27.0,44,30.06,10.0,West,4.6,-,N/A,,Mostly Cloudy,280,2013-02-01 18:53:00
12:53 PM,53.1,21.9,30,30.02,10.0,WNW,16.1,-,N/A,,Partly Cloudy,290,2013-02-01 19:53:00
1:53 PM,51.1,23.0,33,30.02,10.0,WNW,11.5,19.6,N/A,,Partly Cloudy,300,2013-02-01 20:53:00
2:53 PM,53.1,25.0,34,30.01,10.0,NW,8.1,-,N/A,,Clear,320,2013-02-01 21:53:00
3:53 PM,45.0,32.0,60,30.08,10.0,NW,23.0,32.2,0.00,Rain,Light Rain,310,2013-02-01 22:53:00
4:53 PM,41.0,35.1,79,30.10,10.0,WNW,6.9,-,0.00,,Overcast,300,2013-02-01 23:53:00
5:53 PM,39.9,35.1,83,30.14,10.0,NW,17.3,24.2,0.00,,Overcast,320,2013-02-02 00:53:00
6:53 PM,37.0,34.0,89,30.15,10.0,NNW,8.1,-,0.00,,Mostly Cloudy,330,2013-02-02 01:53:00
7:53 PM,36.0,33.1,89,30.18,10.0,WNW,9.2,-,N/A,,Overcast,290,2013-02-02 02:53:00
8:53 PM,34.0,30.9,89,30.19,10.0,WNW,10.4,-,N/A,,Clear,290,2013-02-02 03:53:00
9:53 PM,33.1,28.9,85,30.21,10.0,NW,10.4,-,N/A,,Clear,310,2013-02-02 04:53:00
10:53 PM,32.0,28.0,85,30.22,10.0,WNW,10.4,-,N/A,,Clear,300,2013-02-02 05:53:00
11:53 PM,32.0,28.0,85,30.21,10.0,NW,10.4,-,N/A,,Clear,320,2013-02-02 06:53:00